FW9322 Weather Reports


time (UTC)temp
C
wind
direction
speed
KPH
gust
KPH
rain 1hr
cm
rain 24hr
cm
rain mn
cm
humidity
%
barometer
mb
20260510204554 3 0 0.0 0.0 0.00 0.03 0.00 95 1032.7
20260510203051 3 0 0.0 0.0 0.00 0.03 0.00 95 1032.6
20260510201543 4 0 0.0 0.0 0.00 0.03 0.00 95 1032.4
20260510200051 4 0 0.0 0.0 0.00 0.03 0.00 95 1032.2
20260510194547 4 0 0.0 0.0 0.00 0.05 0.00 95 1032.1
20260510193047 4 0 0.0 0.0 0.00 0.05 0.00 95 1032.0
20260510191553 4 0 0.0 0.0 0.00 0.05 0.00 95 1031.9
20260510190046 4 0 0.0 0.0 0.00 0.05 0.00 95 1031.8
20260510184544 4 0 0.0 0.0 0.00 0.08 0.00 95 1031.8
20260510183051 4 0 0.0 0.0 0.00 0.08 0.00 95 1031.6
20260510181554 4 0 0.0 0.0 0.00 0.08 0.00 94 1031.4
20260510180047 5 0 0.0 0.0 0.00 0.08 0.00 95 1031.4
20260510174552 5 0 0.0 0.0 0.00 0.08 0.00 94 1031.3
20260510173110 5 0 0.0 0.0 0.00 0.08 0.00 95 1031.2
20260510171544 5 0 0.0 0.0 0.00 0.08 0.00 94 1031.3
20260510170042 5 0 0.0 0.0 0.00 0.08 0.00 94 1031.3
20260510164606 5 0 0.0 0.0 0.00 0.08 0.00 94 1031.3
20260510163047 5 0 0.0 0.0 0.00 0.08 0.00 94 1031.4
20260510161547 5 0 0.0 0.0 0.00 0.08 0.00 94 1031.4
20260510160046 5 0 0.0 0.0 0.00 0.08 0.00 95 1031.5
20260510154543 5 0 0.0 0.0 0.00 0.08 0.00 94 1031.6
20260510153047 5 0 0.0 0.0 0.00 0.08 0.00 94 1031.5
20260510151539 5 0 0.0 0.0 0.00 0.08 0.00 94 1031.6
20260510150048 5 0 0.0 0.0 0.00 0.08 0.00 94 1031.6
20260510144550 5 0 0.0 0.0 0.00 0.08 0.00 94 1031.7
20260510143043 5 0 0.0 0.0 0.00 0.08 0.00 94 1031.8
20260510141542 5 0 0.0 0.0 0.00 0.08 0.00 94 1031.9
20260510140044 5 0 0.0 0.0 0.00 0.08 0.00 93 1031.9
20260510134553 5 0 0.0 0.0 0.00 0.08 0.08 93 1032.0
20260510133047 5 0 0.0 0.0 0.00 0.08 0.08 93 1031.9
20260510131543 5 0 0.0 0.0 0.00 0.08 0.08 93 1032.0
20260510130046 6 0 0.0 0.0 0.00 0.08 0.08 93 1032.0
20260510124551 6 0 0.0 0.0 0.00 0.08 0.08 93 1031.9
20260510123041 6 0 0.0 0.0 0.00 0.08 0.08 92 1032.0
20260510121553 6 0 0.0 0.0 0.00 0.08 0.08 92 1032.2
20260510120044 6 0 0.0 0.0 0.00 0.08 0.08 92 1032.1
20260510114601 7 0 0.0 0.0 0.00 0.08 0.08 92 1032.1
20260510113044 7 0 0.0 0.0 0.00 0.08 0.08 93 1032.0
20260510111549 7 0 0.0 0.0 0.00 0.08 0.08 93 1032.0
20260510110042 7 0 0.0 0.0 0.00 0.08 0.08 92 1031.9
20260510104604 7 0 0.0 0.0 0.00 0.08 0.08 92 1031.8
20260510103052 7 0 0.0 0.0 0.00 0.08 0.08 91 1031.7
20260510101546 7 0 0.0 0.0 0.00 0.08 0.08 91 1031.8
20260510100052 7 0 0.0 0.0 0.00 0.08 0.08 90 1031.6
20260510094547 7 0 0.0 0.0 0.00 0.08 0.08 88 1031.6
20260510093048 7 0 0.0 0.0 0.00 0.08 0.08 87 1031.5
20260510091546 8 0 0.0 0.0 0.00 0.08 0.08 86 1031.5
20260510090047 8 0 0.0 0.0 0.00 0.08 0.08 85 1031.3
20260510084552 9 0 0.0 0.0 0.00 0.08 0.08 84 1031.2
20260510083100 10 0 0.0 0.0 0.00 0.08 0.08 81 1031.1
20260510081552 11 0 0.0 0.0 0.00 0.08 0.08 80 1030.9
20260510080057 11 0 0.0 0.0 0.00 0.08 0.08 77 1030.9
20260510074602 12 0 0.0 0.0 0.00 0.08 0.08 75 1030.7
20260510073050 13 0 0.0 3.2 0.00 0.08 0.08 75 1030.6
20260510071557 13 0 0.0 3.2 0.00 0.08 0.08 74 1030.6
20260510070043 14 0 0.0 4.8 0.00 0.08 0.08 72 1030.4
20260510064607 15 0 0.0 3.2 0.00 0.08 0.08 70 1030.3
20260510063056 15 0 0.0 0.0 0.00 0.08 0.08 70 1030.1
20260510061549 16 0 3.2 14.5 0.00 0.08 0.08 68 1030.2
20260510060055 16 124 1.6 9.7 0.00 0.08 0.08 67 1030.1
20260510054545 17 0 0.0 4.8 0.00 0.08 0.08 65 1030.0
20260510053049 16 0 0.0 9.7 0.00 0.08 0.08 67 1029.9
20260510051552 16 123 1.6 6.4 0.00 0.08 0.08 67 1029.8
20260510050046 16 126 3.2 8.0 0.00 0.08 0.08 68 1029.8
20260510044542 16 0 1.6 9.7 0.00 0.08 0.08 68 1029.8
20260510043050 16 0 1.6 9.7 0.00 0.08 0.08 69 1029.8
20260510041605 16 151 3.2 9.7 0.00 0.08 0.08 70 1029.7
20260510040046 16 198 1.6 8.0 0.00 0.08 0.08 71 1029.9
20260510034545 15 139 1.6 9.7 0.00 0.08 0.08 71 1030.1
20260510033043 15 161 3.2 9.7 0.00 0.08 0.08 72 1030.1
20260510031541 15 0 0.0 9.7 0.00 0.08 0.08 73 1030.2
20260510030049 15 0 0.0 6.4 0.00 0.08 0.08 73 1030.3
20260510024556 15 0 0.0 11.3 0.00 0.08 0.08 75 1030.4
20260510023044 15 163 0.0 11.3 0.00 0.08 0.08 76 1030.7
20260510021542 14 0 1.6 8.0 0.00 0.08 0.08 75 1030.8
20260510020052 14 188 1.6 12.9 0.00 0.08 0.08 77 1031.0
20260510014553 14 0 0.0 11.3 0.00 0.10 0.08 79 1031.1
20260510013055 13 215 0.0 9.7 0.00 0.10 0.08 81 1031.3
20260510011549 13 197 0.0 9.7 0.00 0.10 0.08 83 1031.4
20260510010059 13 0 0.0 8.0 0.00 0.10 0.08 86 1031.4
20260510004546 12 261 3.2 11.3 0.00 0.10 0.08 89 1031.4
20260510003048 12 295 3.2 9.7 0.00 0.10 0.08 93 1031.4
20260510001549 12 194 0.0 8.0 0.00 0.10 0.08 94 1031.5
20260510000053 12 201 0.0 8.0 0.00 0.10 0.08 95 1031.5
20260509234600 12 200 1.6 8.0 0.00 0.10 0.08 96 1031.4
20260509233046 12 212 3.2 6.4 0.00 0.10 0.08 96 1031.4
20260509231550 11 0 0.0 4.8 0.00 0.10 0.08 96 1031.3
20260509230048 11 0 0.0 3.2 0.00 0.10 0.08 96 1031.2
20260509224551 11 0 0.0 0.0 0.00 0.10 0.08 96 1031.1
20260509223049 11 0 0.0 0.0 0.00 0.10 0.08 96 1031.1
20260509221603 11 0 0.0 1.6 0.00 0.10 0.08 96 1030.9
20260509220059 11 0 0.0 0.0 0.00 0.10 0.08 96 1030.8
20260509214548 11 0 0.0 3.2 0.00 0.10 0.08 96 1030.7
20260509213049 11 0 0.0 0.0 0.00 0.10 0.08 96 1030.5
20260509211547 11 0 0.0 6.4 0.03 0.10 0.08 96 1030.2
20260509210055 11 197 1.6 9.7 0.03 0.10 0.08 96 1030.1